Location: Avully
(45.9633°N, 6.0228°E)
Time: 11:39:21
(UTC+00:00)

SL-16 R/B - Pass Details

Date: 23 May 2024
Orbit: 842 x 845 km, 71.0° (Epoch: 14 June)

Event Time Altitude Azimuth Distance (km) Brightness Sun altitude
Rises 01:35:49 0° 331° (NNW) 3,415 5.8 -17.8°
Reaches altitude 10° 01:38:16 10° 330° (NNW) 2,476 5.0 -17.6°
Maximum altitude 01:43:55 71° 248° (WSW) 893 2.1 -17.0°
Enters shadow 01:48:59 13° 165° (SSE) 2,250 4.0 -16.6°
